This is the latest recevied weather packets stored in our database for station/object LX0WX-13. If no packets are shown the sender has not sent any weather packets the latest 10 day(s).
| Time | Temp. | Humidity | Pressure | Rain* | Wind** | Luminosity | Snow |
|---|---|---|---|---|---|---|---|
| 1777358776 | 12.78° C | 42% | 1013.8 hPa | 0 mm | - | - | - |
| 1777358476 | 12.78° C | 43% | 1013.8 hPa | 0 mm | - | - | - |
| 1777358176 | 12.78° C | 45% | 1013.9 hPa | 0 mm | - | - | - |
| 1777357876 | 12.22° C | 46% | 1013.8 hPa | 0 mm | - | - | - |
| 1777357576 | 11.67° C | 47% | 1013.7 hPa | 0 mm | - | - | - |
| 1777357276 | 11.11° C | 47% | 1013.6 hPa | 0 mm | - | - | - |
| 1777356976 | 10.56° C | 47% | 1013.5 hPa | 0 mm | - | - | - |
| 1777356676 | 11.11° C | 46% | 1013.6 hPa | 0 mm | - | - | - |
| 1777356376 | 11.11° C | 45% | 1013.6 hPa | 0 mm | - | - | - |
| 1777356076 | 11.11° C | 45% | 1013.8 hPa | 0 mm | - | - | - |
| 1777355776 | 11.11° C | 45% | 1013.8 hPa | 0 mm | - | - | - |
| 1777355476 | 11.11° C | 46% | 1013.7 hPa | 0 mm | - | - | - |
| 1777355176 | 11.11° C | 47% | 1013.6 hPa | 0 mm | - | - | - |
| 1777354876 | 11.11° C | 49% | 1013.7 hPa | 0 mm | - | - | - |
| 1777354576 | 10.56° C | 51% | 1013.5 hPa | 0 mm | - | - | - |
| 1777354276 | 10° C | 54% | 1013.6 hPa | 0 mm | - | - | - |
| 1777353976 | 8.89° C | 56% | 1013.6 hPa | 0 mm | - | - | - |
| 1777353676 | 8.33° C | 57% | 1013.5 hPa | 0 mm | - | - | - |
| 1777353376 | 7.78° C | 57% | 1013.5 hPa | 0 mm | - | - | - |
| 1777353076 | 7.78° C | 57% | 1013.4 hPa | 0 mm | - | - | - |
| 1777352776 | 7.78° C | 58% | 1013.4 hPa | 0 mm | - | - | - |
| 1777352476 | 7.22° C | 58% | 1013.5 hPa | 0 mm | - | - | - |
| 1777352176 | 7.22° C | 59% | 1013.5 hPa | 0 mm | - | - | - |
| 1777351876 | 6.67° C | 59% | 1013.5 hPa | 0 mm | - | - | - |
| 1777351576 | 6.67° C | 58% | 1013.4 hPa | 0 mm | - | - | - |
* Rain latest hour (hover to see other rain measurements)
** Current wind speed in m/s (hover to see current wind gust speed)